GSAT0217 (PRN E27)

Last updated on Feb. 26, 2020, 4:49 a.m. UTC

1 43057U 17079C   20056.42695469  .00000008  00000-0  00000-0 0  9999
2 43057  56.3549 284.8974 0002875 318.9261  41.1170  1.70473940 13718
UTC
Height (km)
Latitude
Longitude
Inclination
Orbital Period
UTC large
Height (km)
Speed (km/s)
/
Latitude / Longitude
Inclination (degrees)
Orbital Period (minutes)
Azimuth
Elevation
Range (km)
Doppler Factor
iOS Compass Heading
iOS Angle

Next 30 passes for location: Hong Kong

Rise time Rise Azimuth (degrees) Set time Set Azimuth (degrees) Duration Max altitude (degrees)

No matching passes for this satellites